Weather History for Buckeye, AZ

Change the Weather History Date:

Sunday, February 17, 2013

  Actual Average (KGYR) Record (KGYR)
Temperature  
Mean Temperature 56 °F -  
Max Temperature 73 °F 67 °F 86 °F (2014)
Min Temperature 39 °F 44 °F 41 °F (2008)
Degree Days  
Heating Degree Days 9    
Growing Degree Days 6 (Base 50)    
Moisture  
Dew Point 22 °F    
Average Humidity 33    
Maximum Humidity 61    
Minimum Humidity 10    
Precipitation  
Precipitation 0.00 in - - ()
Sea Level Pressure  
Sea Level Pressure 29.89 in    
Wind  
Wind Speed 5 mph (West)    
Max Wind Speed 14 mph    
Max Gust Speed 18 mph    
Visibility 10 miles    
Events      
Averages and records for this station are not official NWS values.
T = Trace of Precipitation, MM = Missing Value Source: NWS Daily Summary

Daily Weather History Graph

Daily Weather History Graph

Search for Another Location

Airport:

Trip Planner

Search our weather history database for the weather conditions in past years. The results will help you decide how hot, cold, wet, or windy it might be!

Date:

Astronomy

Feb. 17, 2013 Rise Set
Actual Time 7:12 AM MST 6:17 PM MST
Civil Twilight 6:47 AM MST 6:42 PM MST
Nautical Twilight 6:17 AM MST 7:11 PM MST
Astronomical Twilight 5:49 AM MST 7:40 PM MST
Moon 11:31 AM MST (2/17) 12:53 AM MST (2/17)
Length of Visible Light 11h 55m
Length of Day
11h 05m
Waxing Crescent, 49% of the Moon is Illuminated
Feb 17
Waxing Crescent
Feb 17
First Quarter
Feb 25
Full
Mar 4
Last Quarter
Mar 11
New

Hourly Weather History & Observations

Time (MST) Temp. Windchill Dew Point Humidity Pressure Visibility Wind Dir Wind Speed Gust Speed Precip Events Conditions
12:15 AM 46.4 °F 44.3 °F 26.6 °F 46% 29.96 in 10.0 mi NNW 4.6 mph - N/A   Clear
12:35 AM 46.4 °F 42.9 °F 26.6 °F 46% 29.96 in 10.0 mi NNW 6.9 mph - N/A   Clear
12:55 AM 44.6 °F 41.4 °F 26.6 °F 49% 29.95 in 10.0 mi North 5.8 mph - N/A   Clear
1:15 AM 44.6 °F 42.2 °F 26.6 °F 49% 29.94 in 10.0 mi NNE 4.6 mph - N/A   Clear
1:35 AM 44.6 °F 42.2 °F 26.6 °F 49% 29.94 in 10.0 mi NW 4.6 mph - N/A   Clear
1:55 AM 44.6 °F 41.4 °F 26.6 °F 49% 29.94 in 10.0 mi NNW 5.8 mph - N/A   Clear
2:15 AM 42.8 °F 39.3 °F 26.6 °F 53% 29.94 in 10.0 mi NNW 5.8 mph - N/A   Clear
2:35 AM 42.8 °F 39.3 °F 26.6 °F 53% 29.93 in 10.0 mi NNW 5.8 mph - N/A   Clear
2:55 AM 42.8 °F 38.6 °F 26.6 °F 53% 29.92 in 10.0 mi North 6.9 mph - N/A   Clear
3:15 AM 41.0 °F 37.1 °F 26.6 °F 57% 29.92 in 10.0 mi North 5.8 mph - N/A   Clear
3:35 AM 41.0 °F 38.0 °F 26.6 °F 57% 29.91 in 10.0 mi North 4.6 mph - N/A   Clear
3:55 AM 41.0 °F 37.1 °F 26.6 °F 57% 29.91 in 10.0 mi North 5.8 mph - N/A   Clear
4:15 AM 41.0 °F 38.0 °F 26.6 °F 57% 29.90 in 10.0 mi NW 4.6 mph - N/A   Clear
4:35 AM 41.0 °F 39.0 °F 26.6 °F 57% 29.90 in 10.0 mi North 3.5 mph - N/A   Clear
4:55 AM 41.0 °F - 26.6 °F 57% 29.91 in 10.0 mi Calm Calm - N/A   Clear
5:15 AM 41.0 °F 38.0 °F 26.6 °F 57% 29.90 in 10.0 mi NNW 4.6 mph - N/A   Clear
5:35 AM 41.0 °F 38.0 °F 26.6 °F 57% 29.91 in 10.0 mi NNE 4.6 mph - N/A   Clear
5:55 AM 41.0 °F 38.0 °F 26.6 °F 57% 29.91 in 10.0 mi North 4.6 mph - N/A   Clear
6:35 AM 41.0 °F 36.4 °F 26.6 °F 57% 29.91 in 10.0 mi North 6.9 mph - N/A   Clear
6:55 AM 41.0 °F - 24.8 °F 53% 29.91 in 10.0 mi Calm Calm - N/A   Clear
7:15 AM 41.0 °F - 26.6 °F 57% 29.91 in 10.0 mi Calm Calm - N/A   Clear
7:35 AM 39.2 °F - 26.6 °F 61% 29.92 in 10.0 mi Calm Calm - N/A   Clear
7:55 AM 42.8 °F - 26.6 °F 53% 29.92 in 10.0 mi Calm Calm - N/A   Clear
8:15 AM 46.4 °F - 28.4 °F 50% 29.93 in 6.0 mi Calm Calm - N/A   Clear
8:35 AM 48.2 °F - 26.6 °F 43% 29.93 in 10.0 mi Calm Calm - N/A   Clear
8:55 AM 50.0 °F - 26.6 °F 40% 29.94 in 10.0 mi Calm Calm - N/A   Clear
9:15 AM 50.0 °F - 26.6 °F 40% 29.94 in 10.0 mi Calm Calm - N/A   Clear
9:35 AM 53.6 °F - 26.6 °F 35% 29.94 in 10.0 mi Calm Calm - N/A   Clear
9:55 AM 55.4 °F - 28.4 °F 36% 29.94 in 10.0 mi ENE 3.5 mph - N/A   Clear
10:15 AM 57.2 °F - 32.0 °F 38% 29.93 in 10.0 mi East 6.9 mph - N/A   Clear
10:35 AM 59.0 °F - 28.4 °F 31% 29.93 in 10.0 mi ESE 8.1 mph - N/A   Clear
10:55 AM 62.6 °F - 24.8 °F 24% 29.93 in 10.0 mi East 8.1 mph - N/A   Clear
11:35 AM 62.6 °F - 24.8 °F 24% 29.92 in 10.0 mi South 5.8 mph - N/A   Clear
11:55 AM 64.4 °F - 24.8 °F 22% 29.92 in 10.0 mi SSW 4.6 mph - N/A   Clear
12:15 PM 64.4 °F - 24.8 °F 22% 29.91 in 10.0 mi SSW 4.6 mph - N/A   Clear
12:35 PM 66.2 °F - 24.8 °F 21% 29.90 in 10.0 mi South 4.6 mph - N/A   Clear
12:55 PM 68.0 °F - 19.4 °F 16% 29.89 in 10.0 mi WSW 6.9 mph - N/A   Clear
1:15 PM 68.0 °F - 19.4 °F 16% 29.87 in 10.0 mi SW 8.1 mph - N/A   Clear
1:35 PM 69.8 °F - 19.4 °F 15% 29.86 in 10.0 mi SW 8.1 mph - N/A   Clear
1:55 PM 71.6 °F - 17.6 °F 13% 29.85 in 10.0 mi SW 9.2 mph - N/A   Clear
2:15 PM 73.4 °F - 14.0 °F 10% 29.84 in 10.0 mi West 10.4 mph 18.4 mph N/A   Clear
2:55 PM 73.4 °F - 12.2 °F 10% 29.84 in 10.0 mi SW 11.5 mph - N/A   Clear
3:15 PM 73.4 °F - 14.0 °F 10% 29.83 in 10.0 mi WSW 12.7 mph - N/A   Clear
3:35 PM 73.4 °F - 12.2 °F 10% 29.83 in 10.0 mi SW 9.2 mph - N/A   Clear
3:55 PM 73.4 °F - 12.2 °F 10% 29.83 in 10.0 mi WSW 9.2 mph - N/A   Clear
4:15 PM 73.4 °F - 15.8 °F 11% 29.83 in 10.0 mi West 11.5 mph 16.1 mph N/A   Clear
4:35 PM 73.4 °F - 15.8 °F 11% 29.83 in 10.0 mi WSW 6.9 mph - N/A   Clear
4:55 PM 73.4 °F - 12.2 °F 10% 29.83 in 10.0 mi WSW 9.2 mph - N/A   Clear
5:15 PM 71.6 °F - 15.8 °F 12% 29.83 in 10.0 mi SW 8.1 mph - N/A   Clear
5:35 PM 71.6 °F - 17.6 °F 13% 29.83 in 10.0 mi SW 4.6 mph - N/A   Clear
5:55 PM 68.0 °F - 19.4 °F 16% 29.83 in 10.0 mi SSW 3.5 mph - N/A   Clear
6:15 PM 66.2 °F - 19.4 °F 17% 29.83 in 10.0 mi SW 4.6 mph - N/A   Clear
6:35 PM 66.2 °F - 19.4 °F 17% 29.84 in 9.0 mi South 4.6 mph - N/A   Clear
6:55 PM 64.4 °F - 17.6 °F 16% 29.84 in 10.0 mi SSW 11.5 mph - N/A   Clear
7:15 PM 66.2 °F - 17.6 °F 15% 29.85 in 10.0 mi SW 11.5 mph - N/A   Clear
7:35 PM 64.4 °F - 17.6 °F 16% 29.86 in 10.0 mi SW 13.8 mph - N/A   Clear
7:55 PM 62.6 °F - 17.6 °F 18% 29.86 in 10.0 mi WSW 8.1 mph - N/A   Clear
8:15 PM 62.6 °F - 17.6 °F 18% 29.87 in 10.0 mi SW 9.2 mph - N/A   Clear
8:35 PM 59.0 °F - 17.6 °F 20% 29.87 in 10.0 mi WSW 5.8 mph - N/A   Clear
8:55 PM 57.2 °F - 17.6 °F 21% 29.88 in 10.0 mi WSW 5.8 mph - N/A   Clear
9:15 PM 57.2 °F - 17.6 °F 21% 29.88 in 10.0 mi WSW 9.2 mph - N/A   Clear
9:35 PM 57.2 °F - 17.6 °F 21% 29.88 in 10.0 mi West 3.5 mph - N/A   Clear
9:55 PM 55.4 °F - 17.6 °F 23% 29.89 in 10.0 mi NNW 3.5 mph - N/A   Clear
10:15 PM 55.4 °F - 17.6 °F 23% 29.90 in 10.0 mi NW 5.8 mph - N/A   Clear
10:35 PM 55.4 °F - 17.6 °F 23% 29.90 in 10.0 mi NW 6.9 mph - N/A   Clear
10:55 PM 51.8 °F - 19.4 °F 28% 29.91 in 10.0 mi NNW 4.6 mph - N/A   Clear
11:15 PM 48.2 °F - 19.4 °F 32% 29.91 in 10.0 mi NNW 3.5 mph - N/A   Clear
11:35 PM 46.4 °F 45.2 °F 26.6 °F 46% 29.92 in 10.0 mi ESE 3.5 mph - N/A   Clear
11:55 PM 50.0 °F - 23.0 °F 35% 29.92 in 10.0 mi Calm Calm - N/A   Clear